Temperature
8 6 6 6 7 8 8 8 8 9 9 8 7 8 8 9 9 9 9 10 11 11 11 11 10 10 10 9 9 9 8 8 8 8 7 7 7 7 7 7 7 7 7 7
6 6 7 7 8 8 8 8 8 8 8 8 7 7 7 8 8 9 9 10 11 11 10 10 10 10 10 9 9 8 8 8 8 7 7 7 7 7 7 6 6 6 6 6
7 7 8 8 8 8 7 7 7 7 7 7 7 7 8 8 9 9 10 10 11 11 10 10 10 10 9 9 9 8 8 8 7 7 7 7 6 6 6 6 6 6 6 6
6 7 8 8 7 7 7 7 7 7 6 5 6 6 7 7 8 8 8 9 10 10 10 10 10 9 9 9 8 8 8 7 7 7 6 6 6 6 6 5 5 5 5 5
6 7 7 7 7 7 7 7 7 6 5 4 4 4 6 7 7 7 7 9 10 10 10 10 9 9 9 8 8 8 7 7 7 6 6 6 5 5 5 5 5 5 5 5
6 7 7 7 7 7 6 6 5 3 3 5 5 4 6 6 7 8 7 8 10 10 10 9 9 9 8 8 8 7 7 7 6 6 6 5 5 5 4 4 4 4 4 4
6 6 7 7 6 6 6 5 5 5 4 5 5 4 5 6 7 7 7 8 9 9 9 9 9 8 8 8 7 7 7 6 6 6 5 5 5 4 4 4 4 4 4 4
5 5 6 6 6 5 5 5 5 6 5 5 5 5 6 7 7 8 9 9 9 9 9 8 8 8 8 8 7 6 6 6 5 5 5 5 4 4 4 4 3 3 3 3
4 5 5 5 6 5 4 4 4 3 3 4 4 4 5 7 7 7 7 8 8 8 8 8 8 8 7 7 7 6 6 5 5 5 4 4 4 4 4 3 3 3 3 3
4 4 5 5 5 5 4 3 3 3 4 5 4 4 5 7 7 6 6 6 8 8 8 8 8 7 7 7 6 6 5 5 5 4 4 4 4 3 3 3 3 3 3 2
4 3 3 4 4 3 4 3 3 2 2 3 4 5 6 6 6 6 5 7 8 8 8 7 7 7 6 6 6 5 5 4 4 4 4 3 3 3 3 2 2 2 2 2
3 2 2 3 3 3 3 3 2 3 2 1 2 4 6 5 5 5 6 7 8 8 7 7 7 6 6 6 5 5 4 4 4 4 3 3 3 3 2 2 2 2 2 2
3 2 3 3 3 2 2 2 1 1 1 0 2 5 6 4 5 6 6 7 7 7 7 7 6 6 5 5 5 4 4 3 3 3 3 3 2 2 2 2 2 2 2 2
3 2 3 4 4 1 1 1 1 1 1 1 2 4 5 5 5 5 6 7 7 7 7 6 6 5 5 4 4 4 3 3 3 3 2 2 2 2 2 2 2 2 2 1
3 2 2 2 3 2 2 2 1 1 2 2 3 3 5 5 4 5 6 6 6 6 6 5 5 5 4 4 3 3 3 3 2 2 2 2 1 1 1 1 1 1 1 1
1 1 1 2 2 2 2 2 2 2 2 2 3 3 4 5 5 5 5 5 5 6 5 5 5 4 4 3 3 3 2 2 2 2 1 1 1 1 1 1 1 1 1 1
0 1 1 1 2 2 2 2 2 2 1 2 3 4 4 3 3 4 5 5 5 5 5 5 4 4 3 3 2 2 2 2 1 1 1 1 1 1 1 1 1 1 1 0
-0 0 0 1 1 2 3 3 3 3 2 2 2 3 3 3 4 5 5 5 5 5 4 4 4 3 3 2 2 2 1 1 1 0 0 0 0 0 0 0 0 0 0 -0
0 0 -0 0 0 1 2 3 2 2 2 2 2 3 3 4 3 4 5 5 5 4 4 4 3 3 2 2 1 1 1 1 0 0 -0 -0 -0 -0 -0 -0 -0 -0 -0 -1
0 -0 0 -0 1 1 3 3 3 3 2 2 2 2 2 2 1 2 5 4 4 4 3 3 3 2 2 1 1 0 0 0 -0 -0 -1 -1 -1 -1 -1 -1 -1 -1 -1 -1
0 -0 0 -0 0 1 2 2 3 3 3 3 3 3 3 1 2 4 4 4 3 3 3 2 2 1 1 1 0 -0 -0 -0 -1 -1 -1 -1 -1 -1 -1 -1 -1 -1 -1 -1
-0 -1 -1 -1 0 1 2 1 2 2 3 4 4 4 3 3 4 3 3 3 3 2 2 1 1 1 1 0 -0 -1 -1 -1 -1 -1 -1 -1 -1 -1 -2 -2 -1 -1 -2 -2
-1 -0 -0 0 1 2 2 2 3 3 3 3 3 3 3 3 3 3 2 2 2 1 1 1 0 0 0 -0 -1 -1 -1 -2 -2 -2 -2 -2 -2 -2 -2 -2 -2 -2 -2 -2
-1 -1 -1 -1 -0 1 2 3 3 3 3 3 3 3 3 2 2 2 1 1 1 1 0 0 -0 -0 -0 -1 -1 -2 -2 -2 -2 -2 -2 -2 -2 -2 -2 -2 -2 -2 -3 -3
-1 -1 -1 -1 -1 -0 1 2 3 2 2 2 2 2 2 2 1 1 1 0 0 0 -0 -1 -1 -1 -1 -1 -2 -2 -3 -3 -3 -3 -3 -3 -3 -3 -3 -2 -2 -3 -3 -3
-2 -1 -1 -0 -0 -0 1 2 2 2 2 2 1 1 1 1 0 0 -0 -0 -1 -1 -1 -1 -1 -2 -2 -2 -2 -3 -3 -3 -4 -4 -3 -3 -3 -3 -3 -3 -3 -3 -3 -3
Wind_Speed
2 4 5 8 8 5 5 4 4 4 2 3 9 13 14 10 8 10 9 9 9 9 7 5 5 5 4 3 3 3 3 3 2 2 2 3 3 4 4 4 6 7 7 7
3 4 7 5 5 3 3 3 3 4 3 3 7 13 12 8 8 9 10 10 9 7 5 5 4 4 4 4 4 4 4 4 4 3 3 3 4 4 5 5 6 7 8 8
8 5 5 5 4 5 4 5 4 3 5 4 5 8 6 4 3 5 7 8 8 9 9 7 5 5 4 5 5 5 5 5 5 5 3 3 3 3 3 5 5 6 8 8
4 4 3 5 5 6 4 4 4 2 2 4 2 5 7 5 4 5 6 6 7 8 8 8 7 6 5 6 5 5 5 5 5 4 3 4 4 5 6 5 6 7 8 9
4 4 5 6 5 6 5 2 3 2 2 3 1 3 9 4 6 8 8 8 8 8 8 8 7 7 5 5 4 4 5 5 5 5 5 5 6 6 6 6 7 8 7 8
3 2 3 5 2 5 5 5 5 5 4 3 5 6 8 5 7 6 6 7 7 7 7 6 5 4 4 4 4 4 4 5 5 5 5 6 7 8 8 8 8 7 7 7
2 2 2 3 4 3 4 5 3 3 2 6 3 5 10 8 7 7 7 7 7 6 6 5 5 4 4 4 4 4 5 6 6 6 6 7 8 9 9 9 8 8 8 7
6 5 6 4 5 6 5 7 7 6 5 5 2 7 8 7 6 5 5 5 5 5 5 6 6 6 5 5 5 5 6 6 6 6 7 7 8 7 7 9 9 9 8 9
8 5 0 2 2 7 6 5 4 5 2 3 6 7 9 3 1 2 3 4 5 5 5 5 5 5 5 5 6 6 6 7 7 7 8 8 8 8 9 10 9 9 9 9
7 4 2 1 4 2 4 7 5 5 5 5 6 6 5 5 5 4 4 5 5 5 4 4 5 5 5 5 5 5 6 7 8 7 8 8 8 9 9 9 10 10 11 10
3 5 1 2 7 8 5 4 4 4 4 5 4 7 6 6 6 6 7 6 6 6 5 5 5 5 5 5 5 5 6 7 7 8 9 9 9 9 9 9 10 11 10 10
4 4 3 5 3 2 5 7 7 5 5 5 4 8 6 5 4 5 6 5 5 5 5 5 5 5 4 5 5 5 6 7 8 8 8 9 9 9 9 10 11 10 10 9
6 5 3 1 2 1 3 4 5 4 4 6 6 8 4 1 2 2 4 5 5 5 5 4 4 4 5 5 5 6 7 7 8 8 9 9 9 9 10 11 11 10 10 10
5 4 6 8 6 6 5 6 7 6 5 6 10 10 9 7 6 6 5 5 5 5 5 4 4 5 5 5 6 6 8 8 8 8 9 10 10 10 11 11 11 11 9 9
5 5 5 5 2 4 6 7 10 11 11 10 10 11 14 10 8 8 6 5 5 5 5 5 5 5 5 6 7 7 8 8 8 8 9 10 10 10 10 10 10 9 8 9
3 4 3 4 4 5 7 10 13 14 12 13 12 15 12 8 5 6 7 6 6 7 7 6 5 5 6 6 7 8 8 8 8 8 9 10 10 10 9 10 10 9 8 8
5 6 4 4 3 1 9 12 14 9 9 10 15 15 7 6 7 8 8 7 7 7 7 6 6 5 6 7 7 8 8 8 8 9 10 10 9 10 10 10 10 9 8 8
7 6 4 2 2 8 9 5 10 11 11 13 11 9 8 9 9 7 7 7 7 7 6 6 5 5 6 6 7 7 7 7 8 9 10 10 9 10 10 10 10 10 8 8
7 7 4 4 5 8 9 5 6 9 9 10 13 12 10 5 4 6 7 6 7 6 6 5 5 5 5 6 7 7 8 8 8 9 10 10 9 10 10 10 10 9 8 8
5 5 5 4 4 7 7 3 3 4 6 5 7 9 7 2 3 7 4 3 4 4 4 4 4 4 5 6 5 6 8 8 9 10 10 10 9 9 9 9 9 8 7 8
6 5 7 6 6 8 7 3 4 4 7 3 4 6 5 6 8 5 3 2 2 3 3 3 3 4 5 5 5 6 8 9 10 10 10 9 9 8 8 8 7 7 7 7
9 7 7 6 7 9 4 4 6 6 3 2 2 3 5 6 5 4 3 3 2 3 3 3 3 5 5 5 4 7 9 9 9 9 9 9 9 8 8 8 8 7 7 7
9 9 7 9 8 4 4 5 5 3 3 4 3 4 4 4 3 3 3 3 3 4 4 4 4 6 6 5 4 7 9 9 9 9 9 9 9 8 7 7 7 7 6 6
4 3 4 4 7 5 5 5 4 4 5 5 4 4 3 3 4 3 3 3 4 4 4 4 4 6 7 6 6 6 7 7 8 9 9 9 8 9 8 6 6 5 6 6
6 5 4 6 6 4 5 6 6 5 4 3 2 3 3 3 3 4 4 4 4 4 4 4 4 6 7 7 7 7 7 7 8 9 9 9 8 8 7 7 6 6 6 7
5 6 7 8 7 6 6 5 4 4 4 4 3 3 2 2 3 3 4 4 4 4 4 4 5 6 6 6 7 7 7 7 7 8 9 7 7 6 6 7 8 9 9 11
Wind_Direction
136 103 189 201 196 185 164 174 225 248 245 239 247 264 270 263 240 231 226 217 210 212 214 198 192 190 192 205 220 232 242 256 258 283 286 288 285 283 282 272 271 274 276 279
92 224 217 190 188 189 184 201 247 283 311 266 278 277 273 256 229 219 212 212 207 206 201 200 196 193 202 215 227 235 238 248 248 248 252 253 265 271 271 273 277 271 270 273
183 213 196 176 175 180 213 201 212 244 328 348 327 303 285 280 242 213 205 205 203 198 198 200 204 214 215 223 227 237 243 248 253 253 266 292 304 302 292 283 274 271 272 269
206 229 187 175 194 171 218 203 184 176 17 300 18 296 285 275 275 236 221 211 210 206 200 201 204 216 224 231 233 238 247 252 256 253 249 258 275 279 275 276 273 276 271 267
212 194 184 197 203 170 191 145 131 128 127 320 267 221 282 281 251 240 228 222 215 206 200 203 208 215 228 231 233 242 250 256 259 252 244 250 264 269 278 284 280 277 272 267
219 220 189 187 159 160 134 76 64 54 71 288 221 191 274 240 222 226 221 218 214 207 204 208 213 218 235 240 241 245 251 264 266 261 257 253 262 271 281 284 282 280 275 269
225 241 210 138 114 108 115 107 50 349 335 250 204 204 251 249 231 212 209 210 210 203 198 205 215 224 233 243 250 254 255 267 271 269 266 262 261 262 265 272 274 276 278 274
181 232 208 181 167 167 174 154 168 200 224 268 247 234 253 259 255 222 201 187 185 196 201 209 218 222 231 244 253 258 259 267 271 271 269 266 265 265 267 267 270 273 273 271
181 216 98 165 137 141 150 186 162 134 133 269 265 278 297 253 242 185 168 164 190 203 211 220 230 234 239 249 254 256 263 269 272 270 271 271 271 268 270 271 272 273 273 273
159 178 213 151 95 53 147 148 124 146 172 240 276 266 245 239 216 203 195 204 214 215 227 237 239 243 249 254 263 269 264 268 275 278 277 281 275 272 272 274 274 275 272 272
150 151 170 161 194 184 152 157 151 147 167 179 245 262 225 216 206 200 211 216 215 219 228 236 244 250 257 268 273 274 279 283 288 287 283 281 279 277 277 278 278 278 275 272
151 133 189 234 264 199 181 179 157 169 214 196 205 265 269 237 222 203 220 230 230 230 236 241 251 263 274 280 286 285 286 286 287 287 289 286 281 280 281 280 280 280 277 270
144 134 121 343 311 263 219 204 183 145 142 176 197 259 303 319 284 250 237 240 244 251 256 260 262 267 274 281 287 288 288 288 292 293 294 292 290 285 283 283 284 281 277 275
137 156 187 202 214 182 208 215 187 162 190 216 227 250 276 281 278 278 267 252 258 259 259 264 268 272 277 282 288 292 293 292 294 296 295 293 290 288 285 284 284 281 275 275
135 190 220 243 207 178 207 212 200 207 208 214 237 240 254 254 253 256 257 257 262 267 271 268 271 279 287 294 296 295 296 296 297 297 296 293 292 291 289 286 287 285 279 276
141 175 190 260 232 225 249 234 217 223 227 235 253 263 261 260 254 256 254 246 251 259 259 262 267 275 284 289 293 297 298 300 302 298 297 299 299 298 295 294 293 289 284 280
168 160 172 239 241 282 257 228 211 213 212 205 232 247 257 257 255 248 247 243 245 252 255 259 266 267 275 283 288 292 295 302 305 302 302 304 304 301 298 299 299 295 286 283
163 161 173 194 161 232 244 219 199 213 229 215 228 245 244 244 254 249 236 233 245 253 256 258 262 271 280 285 291 295 300 304 304 305 307 306 304 303 303 302 299 299 294 285
170 163 171 180 220 268 284 245 185 197 247 225 229 246 255 263 301 281 251 230 236 242 248 254 259 266 279 284 290 298 304 305 305 307 307 307 305 304 305 303 300 301 300 294
169 164 175 184 205 238 252 242 183 139 265 245 211 234 248 207 264 270 269 248 255 258 261 263 271 283 287 293 300 304 304 307 307 305 304 304 305 304 303 301 300 300 300 294
173 190 207 210 226 257 254 233 126 174 241 241 202 223 221 212 226 245 253 257 250 266 273 275 278 287 289 298 308 305 305 304 304 306 308 309 310 306 304 303 303 305 305 303
180 184 195 187 214 247 221 139 184 220 256 247 228 223 223 230 242 247 249 256 265 283 292 292 291 295 299 303 307 305 303 304 308 310 312 313 313 312 312 309 309 311 310 308
199 193 187 195 215 244 185 205 234 226 236 247 240 246 228 229 243 247 251 259 271 278 287 292 289 298 306 308 304 301 305 312 316 318 316 314 315 314 310 307 310 315 315 311
240 181 174 235 256 252 248 249 249 230 232 243 237 233 216 226 239 249 261 269 278 286 286 291 298 302 306 310 308 299 306 314 318 316 315 314 315 316 317 314 312 314 316 314
211 177 191 238 261 280 263 241 245 253 251 250 253 234 216 215 237 241 255 266 274 284 287 286 287 292 298 308 310 312 315 319 318 315 313 313 313 312 315 315 310 307 302 303
202 189 195 228 224 215 243 246 243 240 245 240 240 259 252 220 240 253 260 266 269 278 287 294 295 299 303 310 312 316 320 321 318 316 315 314 314 315 315 316 317 316 314 318
Height
1482 1487 1488 1486 1486 1485 1486 1488 1488 1486 1483 1485 1483 1478 1472 1470 1470 1470 1470 1471 1472 1474 1476 1478 1479 1480 1480 1479 1479 1478 1476 1475 1473 1471 1469 1467 1465 1464 1462 1461 1459 1458 1456 1454
1485 1486 1481 1481 1483 1484 1485 1488 1489 1486 1484 1484 1482 1476 1468 1465 1464 1463 1465 1466 1468 1470 1472 1474 1475 1476 1476 1476 1475 1474 1473 1471 1470 1468 1466 1464 1462 1459 1458 1456 1454 1453 1451 1449
1480 1479 1477 1480 1482 1484 1486 1488 1487 1488 1486 1484 1484 1475 1467 1462 1460 1460 1461 1463 1464 1466 1468 1469 1471 1472 1472 1472 1471 1470 1469 1467 1466 1464 1462 1459 1457 1455 1453 1450 1448 1447 1446 1444
1479 1476 1476 1478 1480 1482 1486 1483 1484 1486 1491 1493 1490 1488 1469 1463 1460 1458 1458 1459 1460 1463 1464 1466 1467 1468 1468 1468 1468 1467 1465 1464 1462 1460 1457 1455 1452 1449 1447 1445 1443 1441 1440 1438
1476 1474 1475 1476 1477 1479 1482 1482 1484 1487 1492 1497 1494 1495 1473 1463 1460 1457 1455 1455 1457 1459 1461 1462 1463 1464 1465 1465 1464 1463 1461 1460 1458 1455 1453 1450 1448 1445 1442 1440 1437 1435 1433 1431
1474 1473 1473 1473 1474 1476 1480 1484 1489 1495 1499 1497 1489 1494 1474 1464 1455 1452 1452 1452 1454 1456 1458 1459 1460 1461 1461 1461 1460 1459 1457 1455 1453 1451 1448 1446 1443 1440 1437 1434 1431 1428 1426 1424
1474 1473 1471 1472 1475 1478 1480 1489 1497 1495 1502 1492 1484 1487 1470 1454 1450 1448 1448 1450 1452 1454 1455 1456 1457 1457 1457 1457 1456 1455 1453 1451 1449 1446 1444 1441 1438 1435 1431 1428 1425 1422 1419 1417
1475 1474 1470 1470 1472 1476 1479 1482 1490 1489 1491 1487 1482 1480 1460 1448 1445 1445 1446 1448 1450 1451 1452 1453 1454 1454 1453 1453 1452 1450 1448 1446 1444 1441 1438 1435 1432 1429 1426 1423 1419 1416 1413 1410
1471 1471 1469 1468 1469 1472 1479 1483 1483 1493 1497 1494 1483 1474 1458 1445 1445 1444 1445 1446 1448 1449 1450 1450 1451 1451 1450 1449 1448 1446 1444 1441 1439 1436 1433 1429 1426 1423 1419 1416 1413 1409 1406 1403
1463 1471 1469 1469 1470 1472 1474 1478 1486 1491 1491 1487 1480 1474 1461 1447 1445 1445 1446 1445 1446 1447 1448 1448 1448 1448 1447 1446 1444 1442 1440 1437 1434 1431 1427 1424 1420 1417 1413 1409 1406 1402 1399 1396
1461 1469 1473 1471 1471 1472 1475 1478 1480 1488 1489 1488 1482 1466 1447 1444 1443 1444 1444 1443 1444 1445 1445 1445 1445 1444 1443 1442 1440 1438 1435 1432 1429 1426 1422 1417 1414 1410 1406 1403 1399 1395 1392 1389
1460 1467 1473 1472 1470 1469 1470 1472 1477 1481 1487 1490 1488 1466 1440 1440 1440 1441 1441 1441 1442 1442 1443 1442 1442 1441 1439 1438 1435 1433 1430 1427 1424 1420 1416 1412 1407 1403 1399 1396 1392 1389 1385 1382
1457 1465 1471 1470 1474 1473 1471 1471 1473 1476 1481 1487 1483 1460 1440 1439 1439 1439 1440 1440 1440 1440 1440 1439 1438 1437 1435 1433 1431 1428 1426 1422 1419 1415 1410 1406 1401 1397 1393 1389 1385 1382 1379 1376
1452 1460 1461 1459 1458 1464 1468 1468 1469 1472 1476 1478 1470 1454 1443 1440 1439 1438 1438 1438 1438 1437 1437 1435 1434 1433 1431 1429 1427 1424 1421 1418 1414 1409 1405 1400 1395 1391 1386 1382 1379 1374 1371 1368
1450 1457 1458 1455 1455 1458 1458 1459 1462 1463 1462 1463 1454 1451 1439 1438 1437 1436 1435 1435 1435 1434 1433 1432 1431 1429 1427 1425 1423 1420 1416 1413 1409 1404 1399 1394 1389 1385 1380 1376 1372 1368 1364 1362
1450 1455 1457 1455 1453 1455 1454 1452 1454 1454 1453 1452 1449 1443 1433 1434 1434 1433 1432 1432 1431 1430 1430 1429 1427 1426 1424 1421 1419 1415 1411 1407 1403 1399 1393 1389 1384 1379 1374 1370 1366 1362 1359 1356
1451 1454 1457 1456 1453 1453 1452 1441 1443 1445 1443 1443 1442 1434 1430 1431 1430 1429 1428 1428 1427 1427 1426 1424 1423 1421 1420 1417 1415 1411 1407 1402 1398 1394 1389 1384 1379 1374 1369 1365 1361 1357 1353 1350
1448 1451 1454 1455 1455 1453 1434 1427 1429 1432 1431 1432 1429 1426 1426 1426 1425 1425 1424 1424 1423 1423 1421 1420 1419 1417 1415 1413 1410 1407 1402 1398 1393 1389 1384 1379 1374 1369 1365 1361 1356 1352 1348 1344
1440 1446 1452 1453 1453 1445 1431 1425 1426 1429 1427 1424 1424 1422 1422 1422 1423 1421 1420 1420 1419 1419 1418 1417 1415 1414 1411 1409 1405 1401 1397 1393 1388 1384 1379 1375 1370 1365 1361 1356 1352 1348 1343 1339
1439 1442 1447 1449 1447 1442 1426 1420 1419 1424 1426 1418 1418 1419 1419 1421 1425 1420 1417 1416 1416 1415 1414 1413 1411 1409 1407 1404 1401 1397 1392 1388 1384 1379 1375 1371 1366 1362 1357 1352 1348 1344 1340 1336
1438 1440 1442 1443 1443 1433 1420 1418 1419 1428 1422 1415 1414 1415 1416 1417 1417 1415 1414 1413 1413 1412 1411 1410 1408 1405 1403 1400 1396 1392 1388 1384 1380 1375 1371 1367 1362 1358 1353 1349 1345 1341 1337 1333
1430 1435 1438 1439 1438 1430 1415 1417 1420 1417 1413 1412 1412 1412 1412 1412 1411 1412 1411 1411 1410 1409 1407 1406 1404 1401 1399 1396 1392 1388 1384 1380 1376 1371 1367 1362 1358 1354 1350 1346 1341 1338 1334 1330
1422 1421 1422 1424 1420 1413 1411 1411 1411 1411 1411 1410 1410 1410 1410 1409 1409 1409 1408 1408 1407 1406 1404 1402 1400 1397 1394 1391 1388 1384 1380 1376 1371 1367 1362 1358 1354 1350 1346 1342 1338 1334 1331 1327
1417 1415 1418 1418 1412 1409 1409 1408 1408 1408 1408 1408 1407 1407 1407 1406 1406 1406 1406 1405 1404 1402 1400 1398 1396 1392 1389 1387 1384 1380 1376 1372 1368 1363 1359 1355 1351 1347 1343 1340 1336 1332 1329 1325
1410 1412 1413 1413 1409 1407 1405 1404 1405 1405 1405 1404 1404 1404 1404 1403 1403 1403 1402 1401 1400 1398 1397 1394 1392 1388 1385 1382 1379 1376 1372 1368 1364 1360 1356 1352 1348 1344 1340 1337 1334 1331 1328 1325
1404 1406 1408 1405 1402 1403 1401 1401 1402 1402 1401 1401 1401 1401 1401 1401 1400 1399 1399 1398 1396 1394 1392 1390 1388 1385 1381 1378 1375 1371 1368 1365 1361 1356 1352 1348 1345 1341 1338 1334 1331 1328 1326 1323